Time,TemperatureF,DewpointF,PressureIn,WindDirection,WindDirectionDegrees,WindSpeedMPH,WindSpeedGustMPH,Humidity,HourlyPrecipIn,Conditions,Clouds,dailyrainin,SoftwareType,DateUTC
2013-04-23 00:01:00,40.7,33.4,30.30,SSE,161,0.0,4.0,75,0.00,,,0.00,Wunderground v.1.15,2013-04-23 04:01:00,
2013-04-23 00:02:00,40.6,33.3,30.30,SSE,161,0.0,4.0,75,0.00,,,0.00,Wunderground v.1.15,2013-04-23 04:02:00,
2013-04-23 00:04:00,40.5,33.5,30.30,SSE,161,0.0,4.0,76,0.00,,,0.00,Wunderground v.1.15,2013-04-23 04:04:00,
2013-04-23 00:09:00,40.2,33.2,30.29,South,176,0.0,4.0,76,0.00,,,0.00,Wunderground v.1.15,2013-04-23 04:09:00,
2013-04-23 00:10:00,40.2,33.2,30.29,South,176,0.0,4.0,76,0.00,,,0.00,Wunderground v.1.15,2013-04-23 04:10:00,
2013-04-23 00:15:00,40.0,33.0,30.29,South,176,0.0,4.0,76,0.00,,,0.00,Wunderground v.1.15,2013-04-23 04:15:00,
2013-04-23 00:21:00,39.8,33.2,30.29,South,176,0.0,4.0,77,0.00,,,0.00,Wunderground v.1.15,2013-04-23 04:21:00,
2013-04-23 00:26:00,39.6,33.3,30.29,SSE,163,0.0,4.0,78,0.00,,,0.00,Wunderground v.1.15,2013-04-23 04:26:00,
2013-04-23 00:31:00,39.5,33.2,30.28,SSE,163,0.0,4.0,78,0.00,,,0.00,Wunderground v.1.15,2013-04-23 04:31:00,
2013-04-23 00:36:00,39.3,33.0,30.28,SSE,163,0.0,4.0,78,0.00,,,0.00,Wunderground v.1.15,2013-04-23 04:36:00,
2013-04-23 00:41:00,39.3,33.3,30.28,SSE,163,0.0,4.0,79,0.00,,,0.00,Wunderground v.1.15,2013-04-23 04:41:00,
2013-04-23 00:47:00,39.1,33.1,30.28,SSE,163,0.0,4.0,79,0.00,,,0.00,Wunderground v.1.15,2013-04-23 04:47:00,
2013-04-23 00:52:00,39.0,33.0,30.28,SSE,163,0.0,4.0,79,0.00,,,0.00,Wunderground v.1.15,2013-04-23 04:52:00,
2013-04-23 00:57:00,38.8,32.8,30.28,SSE,163,0.0,4.0,79,0.00,,,0.00,Wunderground v.1.15,2013-04-23 04:57:00,
2013-04-23 01:02:00,38.7,33.1,30.28,SSE,163,0.0,4.0,80,0.00,,,0.00,Wunderground v.1.15,2013-04-23 05:02:00,
2013-04-23 01:07:00,38.5,33.2,30.28,SSE,163,0.0,4.0,81,0.00,,,0.00,Wunderground v.1.15,2013-04-23 05:07:00,
2013-04-23 01:12:00,38.3,33.3,30.28,SSE,163,0.0,4.0,82,0.00,,,0.00,Wunderground v.1.15,2013-04-23 05:12:00,
2013-04-23 01:17:00,38.1,33.1,30.28,SSE,163,0.0,4.0,82,0.00,,,0.00,Wunderground v.1.15,2013-04-23 05:17:00,
2013-04-23 01:22:00,37.9,33.2,30.28,SSE,163,0.0,4.0,83,0.00,,,0.00,Wunderground v.1.15,2013-04-23 05:22:00,
2013-04-23 01:27:00,37.8,33.1,30.28,SSE,163,0.0,4.0,83,0.00,,,0.00,Wunderground v.1.15,2013-04-23 05:27:00,
2013-04-23 01:32:00,37.6,33.2,30.28,SSE,163,0.0,4.0,84,0.00,,,0.00,Wunderground v.1.15,2013-04-23 05:32:00,
2013-04-23 01:38:00,37.4,33.0,30.28,SSE,163,0.0,4.0,84,0.00,,,0.00,Wunderground v.1.15,2013-04-23 05:38:00,
2013-04-23 01:43:00,37.3,32.9,30.28,SSE,163,0.0,4.0,84,0.00,,,0.00,Wunderground v.1.15,2013-04-23 05:43:00,
2013-04-23 01:49:00,37.1,33.0,30.27,SSE,163,0.0,4.0,85,0.00,,,0.00,Wunderground v.1.15,2013-04-23 05:49:00,
2013-04-23 01:54:00,37.0,32.9,30.27,SSE,163,0.0,4.0,85,0.00,,,0.00,Wunderground v.1.15,2013-04-23 05:54:00,
2013-04-23 01:59:00,36.8,32.7,30.27,SSE,163,0.0,4.0,85,0.00,,,0.00,Wunderground v.1.15,2013-04-23 05:59:00,
2013-04-23 02:04:00,36.7,32.9,30.27,SSE,163,0.0,0.0,86,0.00,,,0.00,Wunderground v.1.15,2013-04-23 06:04:00,
2013-04-23 02:09:00,36.5,32.7,30.27,SSE,163,0.0,0.0,86,0.00,,,0.00,Wunderground v.1.15,2013-04-23 06:09:00,
2013-04-23 02:15:00,36.3,32.5,30.27,SSE,163,0.0,0.0,86,0.00,,,0.00,Wunderground v.1.15,2013-04-23 06:15:00,
2013-04-23 02:20:00,36.1,32.6,30.27,SSE,163,0.0,0.0,87,0.00,,,0.00,Wunderground v.1.15,2013-04-23 06:20:00,
2013-04-23 02:25:00,36.0,32.5,30.27,SSE,163,0.0,0.0,87,0.00,,,0.00,Wunderground v.1.15,2013-04-23 06:25:00,
2013-04-23 02:31:00,35.8,32.3,30.26,SSE,163,0.0,0.0,87,0.00,,,0.00,Wunderground v.1.15,2013-04-23 06:31:00,
2013-04-23 02:36:00,35.6,32.1,30.27,SSE,163,0.0,0.0,87,0.00,,,0.00,Wunderground v.1.15,2013-04-23 06:36:00,
2013-04-23 02:42:00,35.3,32.1,30.26,SSE,163,0.0,0.0,88,0.00,,,0.00,Wunderground v.1.15,2013-04-23 06:42:00,
2013-04-23 02:47:00,35.2,32.0,30.26,SSE,163,0.0,0.0,88,0.00,,,0.00,Wunderground v.1.15,2013-04-23 06:47:00,
2013-04-23 02:52:00,35.0,31.8,30.26,SSE,163,0.0,0.0,88,0.00,,,0.00,Wunderground v.1.15,2013-04-23 06:52:00,
2013-04-23 02:58:00,34.8,31.6,30.26,SSE,163,0.0,0.0,88,0.00,,,0.00,Wunderground v.1.15,2013-04-23 06:58:00,
2013-04-23 03:03:00,34.5,31.3,30.26,SSE,163,0.0,0.0,88,0.00,,,0.00,Wunderground v.1.15,2013-04-23 07:03:00,
2013-04-23 03:08:00,34.4,31.5,30.26,SSE,163,0.0,0.0,89,0.00,,,0.00,Wunderground v.1.15,2013-04-23 07:08:00,
2013-04-23 03:13:00,34.4,31.5,30.26,SSE,163,0.0,0.0,89,0.00,,,0.00,Wunderground v.1.15,2013-04-23 07:13:00,
2013-04-23 03:18:00,34.3,31.4,30.26,SSE,163,0.0,0.0,89,0.00,,,0.00,Wunderground v.1.15,2013-04-23 07:18:00,
2013-04-23 03:23:00,34.1,31.2,30.26,SSE,163,0.0,0.0,89,0.00,,,0.00,Wunderground v.1.15,2013-04-23 07:23:00,
2013-04-23 03:29:00,33.8,30.9,30.26,SSE,163,0.0,0.0,89,0.00,,,0.00,Wunderground v.1.15,2013-04-23 07:29:00,
2013-04-23 03:34:00,33.7,30.8,30.26,SSE,163,0.0,0.0,89,0.00,,,0.00,Wunderground v.1.15,2013-04-23 07:34:00,
2013-04-23 03:39:00,33.5,30.9,30.26,SSE,163,0.0,0.0,90,0.00,,,0.00,Wunderground v.1.15,2013-04-23 07:39:00,
2013-04-23 03:44:00,33.4,30.8,30.26,SSE,163,0.0,0.0,90,0.00,,,0.00,Wunderground v.1.15,2013-04-23 07:44:00,
2013-04-23 03:49:00,33.3,30.7,30.26,SSE,163,0.0,0.0,90,0.00,,,0.00,Wunderground v.1.15,2013-04-23 07:49:00,
2013-04-23 03:54:00,33.2,30.9,30.26,SSE,163,0.0,0.0,91,0.00,,,0.00,Wunderground v.1.15,2013-04-23 07:54:00,
2013-04-23 03:59:00,33.2,30.9,30.25,SSE,163,0.0,0.0,91,0.00,,,0.00,Wunderground v.1.15,2013-04-23 07:59:00,
2013-04-23 04:05:00,33.0,30.7,30.26,SSE,163,0.0,0.0,91,0.00,,,0.00,Wunderground v.1.15,2013-04-23 08:05:00,
2013-04-23 04:10:00,32.9,30.6,30.26,SSE,163,0.0,0.0,91,0.00,,,0.00,Wunderground v.1.15,2013-04-23 08:10:00,
2013-04-23 04:15:00,32.8,30.5,30.26,SSE,163,0.0,0.0,91,0.00,,,0.00,Wunderground v.1.15,2013-04-23 08:15:00,
2013-04-23 04:21:00,32.7,30.4,30.25,SSE,163,0.0,0.0,91,0.00,,,0.00,Wunderground v.1.15,2013-04-23 08:21:00,
2013-04-23 04:26:00,32.6,30.3,30.25,SSE,163,0.0,0.0,91,0.00,,,0.00,Wunderground v.1.15,2013-04-23 08:26:00,
2013-04-23 04:31:00,32.5,30.2,30.25,SSE,163,0.0,0.0,91,0.00,,,0.00,Wunderground v.1.15,2013-04-23 08:31:00,
2013-04-23 04:36:00,32.4,30.3,30.25,SSE,163,0.0,0.0,92,0.00,,,0.00,Wunderground v.1.15,2013-04-23 08:36:00,
2013-04-23 04:41:00,32.3,30.2,30.25,SSE,163,0.0,0.0,92,0.00,,,0.00,Wunderground v.1.15,2013-04-23 08:41:00,
2013-04-23 04:46:00,32.2,30.1,30.25,SSE,163,0.0,0.0,92,0.00,,,0.00,Wunderground v.1.15,2013-04-23 08:46:00,
2013-04-23 04:51:00,32.1,30.0,30.25,SSE,163,0.0,0.0,92,0.00,,,0.00,Wunderground v.1.15,2013-04-23 08:51:00,
2013-04-23 04:56:00,32.0,29.9,30.25,SSE,163,0.0,0.0,92,0.00,,,0.00,Wunderground v.1.15,2013-04-23 08:56:00,
2013-04-23 05:01:00,32.0,29.9,30.25,SSE,163,0.0,0.0,92,0.00,,,0.00,Wunderground v.1.15,2013-04-23 09:01:00,
2013-04-23 05:06:00,31.9,29.8,30.25,SSE,163,0.0,0.0,92,0.00,,,0.00,Wunderground v.1.15,2013-04-23 09:06:00,
2013-04-23 05:11:00,31.8,29.7,30.25,SSE,163,0.0,0.0,92,0.00,,,0.00,Wunderground v.1.15,2013-04-23 09:11:00,
2013-04-23 05:17:00,31.7,29.6,30.25,SSE,163,0.0,0.0,92,0.00,,,0.00,Wunderground v.1.15,2013-04-23 09:17:00,
2013-04-23 05:22:00,31.7,29.9,30.25,SSE,163,0.0,0.0,93,0.00,,,0.00,Wunderground v.1.15,2013-04-23 09:22:00,
2013-04-23 05:27:00,31.7,29.9,30.25,SSE,163,0.0,0.0,93,0.00,,,0.00,Wunderground v.1.15,2013-04-23 09:27:00,
2013-04-23 05:32:00,31.6,29.8,30.25,SSE,163,0.0,0.0,93,0.00,,,0.00,Wunderground v.1.15,2013-04-23 09:32:00,
2013-04-23 05:37:00,31.6,29.8,30.25,SSE,163,0.0,0.0,93,0.00,,,0.00,Wunderground v.1.15,2013-04-23 09:37:00,
2013-04-23 05:42:00,31.5,29.7,30.25,SSE,163,0.0,0.0,93,0.00,,,0.00,Wunderground v.1.15,2013-04-23 09:42:00,
2013-04-23 05:47:00,31.5,29.7,30.25,SSE,163,0.0,0.0,93,0.00,,,0.00,Wunderground v.1.15,2013-04-23 09:47:00,
2013-04-23 05:53:00,31.4,29.6,30.25,SSE,163,0.0,0.0,93,0.00,,,0.00,Wunderground v.1.15,2013-04-23 09:53:00,
2013-04-23 05:58:00,31.2,29.4,30.25,SSE,163,0.0,0.0,93,0.00,,,0.00,Wunderground v.1.15,2013-04-23 09:58:00,
2013-04-23 06:03:00,31.2,29.4,30.25,SSE,163,0.0,0.0,93,0.00,,,0.00,Wunderground v.1.15,2013-04-23 10:03:00,
2013-04-23 06:08:00,31.1,29.3,30.25,SSE,163,0.0,0.0,93,0.00,,,0.00,Wunderground v.1.15,2013-04-23 10:08:00,
2013-04-23 06:13:00,31.0,29.2,30.25,SSE,163,0.0,0.0,93,0.00,,,0.00,Wunderground v.1.15,2013-04-23 10:13:00,
2013-04-23 06:18:00,31.0,29.2,30.25,SSE,163,0.0,0.0,93,0.00,,,0.00,Wunderground v.1.15,2013-04-23 10:18:00,
2013-04-23 06:23:00,31.0,29.2,30.25,SSE,163,0.0,0.0,93,0.00,,,0.00,Wunderground v.1.15,2013-04-23 10:23:00,
2013-04-23 06:29:00,30.8,29.0,30.25,SSE,163,0.0,0.0,93,0.00,,,0.00,Wunderground v.1.15,2013-04-23 10:29:00,
2013-04-23 06:34:00,30.8,29.3,30.25,SSE,163,0.0,0.0,94,0.00,,,0.00,Wunderground v.1.15,2013-04-23 10:34:00,
2013-04-23 06:39:00,30.7,28.9,30.25,SSE,163,0.0,0.0,93,0.00,,,0.00,Wunderground v.1.15,2013-04-23 10:39:00,
2013-04-23 06:44:00,30.7,28.9,30.25,SSE,163,0.0,0.0,93,0.00,,,0.00,Wunderground v.1.15,2013-04-23 10:44:00,
2013-04-23 06:49:00,30.6,28.8,30.25,SSE,163,0.0,0.0,93,0.00,,,0.00,Wunderground v.1.15,2013-04-23 10:49:00,
2013-04-23 06:54:00,30.5,29.0,30.25,SSE,163,0.0,0.0,94,0.00,,,0.00,Wunderground v.1.15,2013-04-23 10:54:00,
2013-04-23 07:00:00,30.5,29.0,30.25,SSE,163,0.0,0.0,94,0.00,,,0.00,Wunderground v.1.15,2013-04-23 11:00:00,
2013-04-23 07:06:00,30.5,29.0,30.25,SSE,163,0.0,0.0,94,0.00,,,0.00,Wunderground v.1.15,2013-04-23 11:06:00,
2013-04-23 07:11:00,30.6,29.1,30.25,SSE,163,0.0,0.0,94,0.00,,,0.00,Wunderground v.1.15,2013-04-23 11:11:00,
2013-04-23 07:16:00,30.7,29.2,30.25,SSE,163,0.0,0.0,94,0.00,,,0.00,Wunderground v.1.15,2013-04-23 11:16:00,
2013-04-23 07:21:00,30.7,29.2,30.25,SSE,163,0.0,0.0,94,0.00,,,0.00,Wunderground v.1.15,2013-04-23 11:21:00,
2013-04-23 07:27:00,30.7,29.2,30.25,SSE,163,0.0,0.0,94,0.00,,,0.00,Wunderground v.1.15,2013-04-23 11:27:00,
2013-04-23 07:32:00,30.9,29.6,30.25,SSE,163,0.0,0.0,95,0.00,,,0.00,Wunderground v.1.15,2013-04-23 11:32:00,
2013-04-23 07:37:00,31.3,30.0,30.25,SSE,163,0.0,0.0,95,0.00,,,0.00,Wunderground v.1.15,2013-04-23 11:37:00,
2013-04-23 07:42:00,31.5,30.2,30.25,SSE,163,0.0,0.0,95,0.00,,,0.00,Wunderground v.1.15,2013-04-23 11:42:00,
2013-04-23 07:47:00,31.9,30.6,30.24,SSE,163,0.0,0.0,95,0.00,,,0.00,Wunderground v.1.15,2013-04-23 11:47:00,
2013-04-23 07:53:00,32.2,30.9,30.24,SSE,163,0.0,0.0,95,0.00,,,0.00,Wunderground v.1.15,2013-04-23 11:53:00,
2013-04-23 07:58:00,32.9,31.9,30.24,SSE,163,0.0,0.0,96,0.00,,,0.00,Wunderground v.1.15,2013-04-23 11:58:00,
2013-04-23 08:03:00,34.0,33.0,30.24,SSE,163,0.0,0.0,96,0.00,,,0.00,Wunderground v.1.15,2013-04-23 12:03:00,
2013-04-23 08:08:00,34.6,33.6,30.23,SSE,163,0.0,0.0,96,0.00,,,0.00,Wunderground v.1.15,2013-04-23 12:08:00,
2013-04-23 08:14:00,36.3,35.5,30.23,SSE,163,0.0,0.0,97,0.00,,,0.00,Wunderground v.1.15,2013-04-23 12:14:00,
2013-04-23 08:19:00,37.1,36.1,30.23,SSE,163,0.0,0.0,96,0.00,,,0.00,Wunderground v.1.15,2013-04-23 12:19:00,
2013-04-23 08:24:00,38.2,37.2,30.22,SSE,163,0.0,2.0,96,0.00,,,0.00,Wunderground v.1.15,2013-04-23 12:24:00,
2013-04-23 08:29:00,39.9,38.9,30.22,SSE,159,1.0,3.0,96,0.00,,,0.00,Wunderground v.1.15,2013-04-23 12:29:00,
2013-04-23 08:35:00,41.2,39.1,30.22,SE,140,2.0,4.0,92,0.00,,,0.00,Wunderground v.1.15,2013-04-23 12:35:00,
2013-04-23 08:40:00,42.2,39.5,30.22,SSE,164,2.0,4.0,90,0.00,,,0.00,Wunderground v.1.15,2013-04-23 12:40:00,
2013-04-23 08:45:00,44.0,39.5,30.22,SSE,150,2.0,7.0,84,0.00,,,0.00,Wunderground v.1.15,2013-04-23 12:45:00,
2013-04-23 08:50:00,45.7,38.9,30.22,ESE,115,3.0,7.0,77,0.00,,,0.00,Wunderground v.1.15,2013-04-23 12:50:00,
2013-04-23 08:56:00,46.6,38.8,30.22,East,79,3.0,4.0,74,0.00,,,0.00,Wunderground v.1.15,2013-04-23 12:56:00,
2013-04-23 09:01:00,47.2,39.3,30.22,SSE,150,3.0,5.0,74,0.00,,,0.00,Wunderground v.1.15,2013-04-23 13:01:00,
2013-04-23 09:07:00,47.6,39.4,30.22,SE,141,3.0,5.0,73,0.00,,,0.00,Wunderground v.1.15,2013-04-23 13:07:00,
2013-04-23 09:16:00,48.5,39.2,30.22,ESE,115,3.0,3.0,70,0.00,,,0.00,Wunderground v.1.15,2013-04-23 13:16:00,
2013-04-23 09:21:00,49.3,40.3,30.22,East,94,2.0,7.0,71,0.00,,,0.00,Wunderground v.1.15,2013-04-23 13:21:00,
2013-04-23 09:27:00,50.0,39.5,30.21,East,89,2.0,7.0,67,0.00,,,0.00,Wunderground v.1.15,2013-04-23 13:27:00,
2013-04-23 09:33:00,50.8,41.0,30.20,ESE,117,2.0,7.0,69,0.00,,,0.00,Wunderground v.1.15,2013-04-23 13:33:00,
2013-04-23 09:39:00,51.5,40.9,30.20,ESE,122,3.0,7.0,67,0.00,,,0.00,Wunderground v.1.15,2013-04-23 13:39:00,
2013-04-23 09:46:00,51.7,39.5,30.21,ESE,121,3.0,7.0,63,0.00,,,0.00,Wunderground v.1.15,2013-04-23 13:46:00,
2013-04-23 09:51:00,52.4,40.6,30.20,ESE,116,2.0,7.0,64,0.00,,,0.00,Wunderground v.1.15,2013-04-23 13:51:00,
2013-04-23 09:56:00,53.0,41.1,30.20,ESE,120,3.0,7.0,64,0.00,,,0.00,Wunderground v.1.15,2013-04-23 13:56:00,
2013-04-23 10:02:00,53.5,41.6,30.21,ESE,104,3.0,6.0,64,0.00,,,0.00,Wunderground v.1.15,2013-04-23 14:02:00,
2013-04-23 10:07:00,54.1,41.8,30.21,ESE,117,2.0,6.0,63,0.00,,,0.00,Wunderground v.1.15,2013-04-23 14:07:00,
2013-04-23 10:13:00,55.1,42.3,30.21,SSE,158,1.0,6.0,62,0.00,,,0.00,Wunderground v.1.15,2013-04-23 14:13:00,
2013-04-23 10:19:00,55.4,43.0,30.21,SSE,164,0.0,8.0,63,0.00,,,0.00,Wunderground v.1.15,2013-04-23 14:19:00,
2013-04-23 10:24:00,55.7,41.1,30.21,WNW,290,1.0,8.0,58,0.00,,,0.00,Wunderground v.1.15,2013-04-23 14:24:00,
2013-04-23 10:29:00,55.8,42.1,30.21,SSE,155,2.0,8.0,60,0.00,,,0.00,Wunderground v.1.15,2013-04-23 14:29:00,
2013-04-23 10:35:00,56.1,42.0,30.21,South,187,3.0,8.0,59,0.00,,,0.00,Wunderground v.1.15,2013-04-23 14:35:00,
2013-04-23 10:41:00,56.6,41.1,30.20,SE,126,3.0,8.0,56,0.00,,,0.00,Wunderground v.1.15,2013-04-23 14:41:00,
2013-04-23 10:46:00,57.1,41.1,30.20,South,186,2.0,8.0,55,0.00,,,0.00,Wunderground v.1.15,2013-04-23 14:46:00,
2013-04-23 10:51:00,57.4,41.4,30.20,South,173,2.0,8.0,55,0.00,,,0.00,Wunderground v.1.15,2013-04-23 14:51:00,
2013-04-23 10:56:00,58.1,42.5,30.21,SE,138,2.0,8.0,56,0.00,,,0.00,Wunderground v.1.15,2013-04-23 14:56:00,
2013-04-23 11:02:00,58.5,44.2,30.21,SE,132,3.0,8.0,59,0.00,,,0.00,Wunderground v.1.15,2013-04-23 15:02:00,
2013-04-23 11:07:00,58.7,42.6,30.21,SE,126,5.0,8.0,55,0.00,,,0.00,Wunderground v.1.15,2013-04-23 15:07:00,
2013-04-23 11:12:00,59.4,42.3,30.20,SSE,159,4.0,8.0,53,0.00,,,0.00,Wunderground v.1.15,2013-04-23 15:12:00,
2013-04-23 11:17:00,60.3,43.6,30.20,SSE,152,2.0,8.0,54,0.00,,,0.00,Wunderground v.1.15,2013-04-23 15:17:00,
2013-04-23 11:22:00,61.1,41.2,30.20,SSE,160,3.0,8.0,48,0.00,,,0.00,Wunderground v.1.15,2013-04-23 15:22:00,
2013-04-23 11:27:00,61.0,42.7,30.20,ESE,115,2.0,8.0,51,0.00,,,0.00,Wunderground v.1.15,2013-04-23 15:27:00,
2013-04-23 11:32:00,61.6,42.8,30.20,ENE,59,1.0,8.0,50,0.00,,,0.00,Wunderground v.1.15,2013-04-23 15:32:00,
2013-04-23 11:38:00,61.3,41.4,30.20,South,172,2.0,8.0,48,0.00,,,0.00,Wunderground v.1.15,2013-04-23 15:38:00,
2013-04-23 11:43:00,61.4,41.5,30.20,SSE,157,3.0,8.0,48,0.00,,,0.00,Wunderground v.1.15,2013-04-23 15:43:00,
2013-04-23 11:49:00,62.4,44.5,30.20,South,172,3.0,8.0,52,0.00,,,0.00,Wunderground v.1.15,2013-04-23 15:49:00,
2013-04-23 11:54:00,62.7,43.8,30.20,ESE,106,2.0,8.0,50,0.00,,,0.00,Wunderground v.1.15,2013-04-23 15:54:00,
2013-04-23 12:00:00,63.1,43.1,30.19,SE,146,4.0,9.0,48,0.00,,,0.00,Wunderground v.1.15,2013-04-23 16:00:00,
2013-04-23 12:06:00,63.0,43.0,30.20,South,187,4.0,9.0,48,0.00,,,0.00,Wunderground v.1.15,2013-04-23 16:06:00,
2013-04-23 12:11:00,63.1,41.4,30.19,SW,219,3.0,9.0,45,0.00,,,0.00,Wunderground v.1.15,2013-04-23 16:11:00,
2013-04-23 12:16:00,63.4,41.7,30.19,ESE,119,3.0,11.0,45,0.00,,,0.00,Wunderground v.1.15,2013-04-23 16:16:00,
2013-04-23 12:21:00,63.7,41.9,30.18,SE,142,5.0,9.0,45,0.00,,,0.00,Wunderground v.1.15,2013-04-23 16:21:00,
2013-04-23 12:26:00,63.3,40.4,30.18,SE,128,5.0,9.0,43,0.00,,,0.00,Wunderground v.1.15,2013-04-23 16:26:00,
2013-04-23 12:31:00,63.9,44.4,30.18,ESE,114,2.0,9.0,49,0.00,,,0.00,Wunderground v.1.15,2013-04-23 16:31:00,
2013-04-23 12:37:00,64.9,44.2,30.17,East,101,3.0,9.0,47,0.00,,,0.00,Wunderground v.1.15,2013-04-23 16:37:00,
2013-04-23 12:43:00,64.8,41.2,30.17,SSW,209,4.0,9.0,42,0.00,,,0.00,Wunderground v.1.15,2013-04-23 16:43:00,
2013-04-23 12:49:00,64.4,41.4,30.16,NNW,327,2.0,9.0,43,0.00,,,0.00,Wunderground v.1.15,2013-04-23 16:49:00,
2013-04-23 12:54:00,65.7,45.5,30.16,SSE,162,2.0,9.0,48,0.00,,,0.00,Wunderground v.1.15,2013-04-23 16:54:00,
2013-04-23 13:00:00,65.2,42.7,30.15,SE,129,3.0,3.0,44,0.00,,,0.00,Wunderground v.1.15,2013-04-23 17:00:00,
2013-04-23 13:06:00,66.1,43.5,30.15,NNW,342,1.0,13.0,44,0.00,,,0.00,Wunderground v.1.15,2013-04-23 17:06:00,
2013-04-23 13:11:00,66.2,43.6,30.15,ESE,114,1.0,13.0,44,0.00,,,0.00,Wunderground v.1.15,2013-04-23 17:11:00,
2013-04-23 13:16:00,66.5,43.3,30.15,WSW,252,2.0,13.0,43,0.00,,,0.00,Wunderground v.1.15,2013-04-23 17:16:00,
2013-04-23 13:21:00,66.9,43.0,30.14,North,355,2.0,13.0,42,0.00,,,0.00,Wunderground v.1.15,2013-04-23 17:21:00,
2013-04-23 13:27:00,67.0,41.9,30.14,East,80,2.0,13.0,40,0.00,,,0.00,Wunderground v.1.15,2013-04-23 17:27:00,
2013-04-23 13:32:00,66.6,40.9,30.14,WSW,251,3.0,13.0,39,0.00,,,0.00,Wunderground v.1.15,2013-04-23 17:32:00,
2013-04-23 13:38:00,66.3,42.5,30.13,West,270,1.0,13.0,42,0.00,,,0.00,Wunderground v.1.15,2013-04-23 17:38:00,
2013-04-23 13:43:00,66.4,42.0,30.13,SE,146,2.0,13.0,41,0.00,,,0.00,Wunderground v.1.15,2013-04-23 17:43:00,
2013-04-23 13:49:00,67.0,45.5,30.13,North,5,3.0,13.0,46,0.00,,,0.00,Wunderground v.1.15,2013-04-23 17:49:00,
2013-04-23 13:54:00,67.2,42.0,30.12,NW,318,3.0,13.0,40,0.00,,,0.00,Wunderground v.1.15,2013-04-23 17:54:00,
2013-04-23 14:01:00,67.1,45.0,30.12,NW,306,2.0,2.0,45,0.00,,,0.00,Wunderground v.1.15,2013-04-23 18:01:00,
2013-04-23 14:06:00,67.6,43.1,30.12,South,188,2.0,12.0,41,0.00,,,0.00,Wunderground v.1.15,2013-04-23 18:06:00,
2013-04-23 14:11:00,67.4,43.5,30.11,SSE,148,3.0,12.0,42,0.00,,,0.00,Wunderground v.1.15,2013-04-23 18:11:00,
2013-04-23 14:16:00,67.3,42.8,30.11,SSW,202,3.0,12.0,41,0.00,,,0.00,Wunderground v.1.15,2013-04-23 18:16:00,
2013-04-23 14:21:00,67.3,42.1,30.11,WNW,287,4.0,12.0,40,0.00,,,0.00,Wunderground v.1.15,2013-04-23 18:21:00,
2013-04-23 14:26:00,67.4,43.5,30.10,WNW,301,2.0,12.0,42,0.00,,,0.00,Wunderground v.1.15,2013-04-23 18:26:00,
2013-04-23 14:31:00,67.4,42.9,30.10,SSE,153,2.0,12.0,41,0.00,,,0.00,Wunderground v.1.15,2013-04-23 18:31:00,
2013-04-23 14:36:00,67.2,42.0,30.10,WNW,299,1.0,12.0,40,0.00,,,0.00,Wunderground v.1.15,2013-04-23 18:36:00,
2013-04-23 14:41:00,67.4,42.9,30.09,South,171,1.0,3.0,41,0.00,,,0.00,Wunderground v.1.15,2013-04-23 18:41:00,
2013-04-23 14:46:00,67.6,41.7,30.09,West,271,1.0,12.0,39,0.00,,,0.00,Wunderground v.1.15,2013-04-23 18:46:00,
2013-04-23 14:52:00,67.9,43.3,30.09,South,182,1.0,12.0,41,0.00,,,0.00,Wunderground v.1.15,2013-04-23 18:52:00,
2013-04-23 14:57:00,67.7,41.2,30.09,West,281,1.0,12.0,38,0.00,,,0.00,Wunderground v.1.15,2013-04-23 18:57:00,
2013-04-23 15:02:00,68.0,42.1,30.09,NNW,338,1.0,9.0,39,0.00,,,0.00,Wunderground v.1.15,2013-04-23 19:02:00,
2013-04-23 15:07:00,68.2,42.3,30.08,East,94,2.0,9.0,39,0.00,,,0.00,Wunderground v.1.15,2013-04-23 19:07:00,
2013-04-23 15:12:00,67.8,45.1,30.08,NE,45,3.0,9.0,44,0.00,,,0.00,Wunderground v.1.15,2013-04-23 19:12:00,
2013-04-23 15:18:00,68.3,44.3,30.08,NW,321,3.0,9.0,42,0.00,,,0.00,Wunderground v.1.15,2013-04-23 19:18:00,
2013-04-23 15:23:00,68.6,43.9,30.08,South,179,2.0,9.0,41,0.00,,,0.00,Wunderground v.1.15,2013-04-23 19:23:00,
2013-04-23 15:28:00,68.6,42.0,30.08,SSE,157,2.0,9.0,38,0.00,,,0.00,Wunderground v.1.15,2013-04-23 19:28:00,
2013-04-23 15:34:00,68.7,42.7,30.07,South,172,5.0,9.0,39,0.00,,,0.00,Wunderground v.1.15,2013-04-23 19:34:00,
2013-04-23 15:39:00,68.9,42.9,30.07,SSW,210,5.0,9.0,39,0.00,,,0.00,Wunderground v.1.15,2013-04-23 19:39:00,
2013-04-23 15:45:00,68.4,41.1,30.06,NE,56,4.0,9.0,37,0.00,,,0.00,Wunderground v.1.15,2013-04-23 19:45:00,
2013-04-23 15:51:00,68.1,41.5,30.06,NNW,337,2.0,2.0,38,0.00,,,0.00,Wunderground v.1.15,2013-04-23 19:51:00,
2013-04-23 15:56:00,68.6,42.6,30.06,NW,304,2.0,9.0,39,0.00,,,0.00,Wunderground v.1.15,2013-04-23 19:56:00,
2013-04-23 16:02:00,69.1,44.4,30.06,NNW,342,3.0,10.0,41,0.00,,,0.00,Wunderground v.1.15,2013-04-23 20:02:00,
2013-04-23 16:08:00,69.4,42.7,30.06,NNW,342,2.0,10.0,38,0.00,,,0.00,Wunderground v.1.15,2013-04-23 20:08:00,
2013-04-23 16:13:00,69.4,43.4,30.06,ESE,119,2.0,10.0,39,0.00,,,0.00,Wunderground v.1.15,2013-04-23 20:13:00,
2013-04-23 16:18:00,69.3,41.9,30.05,ENE,78,2.0,10.0,37,0.00,,,0.00,Wunderground v.1.15,2013-04-23 20:18:00,
2013-04-23 16:25:00,69.5,42.8,30.05,SSE,155,2.0,10.0,38,0.00,,,0.00,Wunderground v.1.15,2013-04-23 20:25:00,
2013-04-23 16:30:00,69.6,44.2,30.05,ESE,113,3.0,10.0,40,0.00,,,0.00,Wunderground v.1.15,2013-04-23 20:30:00,
2013-04-23 16:35:00,69.3,42.6,30.05,SSE,165,3.0,10.0,38,0.00,,,0.00,Wunderground v.1.15,2013-04-23 20:35:00,
2013-04-23 16:41:00,69.5,42.1,30.04,SE,144,4.0,10.0,37,0.00,,,0.00,Wunderground v.1.15,2013-04-23 20:41:00,
2013-04-23 16:47:00,69.8,43.0,30.04,SSE,157,5.0,10.0,38,0.00,,,0.00,Wunderground v.1.15,2013-04-23 20:47:00,
2013-04-23 16:53:00,69.8,41.6,30.04,SSE,163,3.0,10.0,36,0.00,,,0.00,Wunderground v.1.15,2013-04-23 20:53:00,
2013-04-23 17:00:00,69.7,41.5,30.03,ESE,123,3.0,10.0,36,0.00,,,0.00,Wunderground v.1.15,2013-04-23 21:00:00,
2013-04-23 17:08:00,69.6,42.2,30.03,SE,146,3.0,4.0,37,0.00,,,0.00,Wunderground v.1.15,2013-04-23 21:08:00,
2013-04-23 17:13:00,69.5,41.4,30.03,SSE,153,3.0,13.0,36,0.00,,,0.00,Wunderground v.1.15,2013-04-23 21:13:00,
2013-04-23 17:19:00,69.6,44.2,30.02,SE,144,2.0,13.0,40,0.00,,,0.00,Wunderground v.1.15,2013-04-23 21:19:00,
2013-04-23 17:25:00,69.7,41.5,30.02,SSW,210,1.0,13.0,36,0.00,,,0.00,Wunderground v.1.15,2013-04-23 21:25:00,
2013-04-23 17:33:00,69.6,43.5,30.02,SSE,153,3.0,9.0,39,0.00,,,0.00,Wunderground v.1.15,2013-04-23 21:33:00,
2013-04-23 17:38:00,69.6,41.5,30.02,South,188,4.0,9.0,36,0.00,,,0.00,Wunderground v.1.15,2013-04-23 21:38:00,
2013-04-23 17:43:00,69.7,42.3,30.02,South,184,3.0,5.0,37,0.00,,,0.00,Wunderground v.1.15,2013-04-23 21:43:00,
2013-04-23 17:48:00,69.7,43.6,30.02,ESE,112,1.0,9.0,39,0.00,,,0.00,Wunderground v.1.15,2013-04-23 21:48:00,
2013-04-23 17:54:00,69.4,42.7,30.02,SE,131,1.0,9.0,38,0.00,,,0.00,Wunderground v.1.15,2013-04-23 21:54:00,
2013-04-23 17:59:00,69.3,43.3,30.02,SE,134,1.0,9.0,39,0.00,,,0.00,Wunderground v.1.15,2013-04-23 21:59:00,
2013-04-23 18:05:00,69.1,42.4,30.02,SSE,161,1.0,9.0,38,0.00,,,0.00,Wunderground v.1.15,2013-04-23 22:05:00,
2013-04-23 18:10:00,68.9,42.9,30.02,SSE,153,2.0,2.0,39,0.00,,,0.00,Wunderground v.1.15,2013-04-23 22:10:00,
2013-04-23 18:16:00,68.5,43.9,30.02,SSE,153,2.0,9.0,41,0.00,,,0.00,Wunderground v.1.15,2013-04-23 22:16:00,
2013-04-23 18:22:00,68.7,42.1,30.02,SSE,153,0.0,9.0,38,0.00,,,0.00,Wunderground v.1.15,2013-04-23 22:22:00,
2013-04-23 18:27:00,68.7,44.7,30.02,SSE,153,1.0,9.0,42,0.00,,,0.00,Wunderground v.1.15,2013-04-23 22:27:00,
2013-04-23 18:32:00,68.6,42.6,30.02,SSE,150,1.0,9.0,39,0.00,,,0.00,Wunderground v.1.15,2013-04-23 22:32:00,
2013-04-23 18:37:00,68.6,43.9,30.02,South,191,1.0,9.0,41,0.00,,,0.00,Wunderground v.1.15,2013-04-23 22:37:00,
2013-04-23 18:42:00,68.5,43.2,30.03,SSE,160,1.0,9.0,40,0.00,,,0.00,Wunderground v.1.15,2013-04-23 22:42:00,
2013-04-23 18:47:00,68.5,43.9,30.02,SSE,164,1.0,9.0,41,0.00,,,0.00,Wunderground v.1.15,2013-04-23 22:47:00,
2013-04-23 18:53:00,68.2,44.2,30.02,SE,140,1.0,9.0,42,0.00,,,0.00,Wunderground v.1.15,2013-04-23 22:53:00,
2013-04-23 18:58:00,67.7,47.3,30.02,SE,137,1.0,9.0,48,0.00,,,0.00,Wunderground v.1.15,2013-04-23 22:58:00,
2013-04-23 19:03:00,66.9,43.7,30.02,SE,126,1.0,5.0,43,0.00,,,0.00,Wunderground v.1.15,2013-04-23 23:03:00,
2013-04-23 19:08:00,66.9,44.9,30.02,SE,136,1.0,5.0,45,0.00,,,0.00,Wunderground v.1.15,2013-04-23 23:08:00,
2013-04-23 19:14:00,66.4,45.0,30.01,SSE,150,1.0,5.0,46,0.00,,,0.00,Wunderground v.1.15,2013-04-23 23:14:00,
2013-04-23 19:19:00,65.4,49.3,30.01,SSE,151,0.0,5.0,56,0.00,,,0.00,Wunderground v.1.15,2013-04-23 23:19:00,
2013-04-23 19:25:00,63.7,50.0,30.01,SSE,150,0.0,5.0,61,0.00,,,0.00,Wunderground v.1.15,2013-04-23 23:25:00,
2013-04-23 19:30:00,62.1,49.8,30.01,SSE,150,0.0,5.0,64,0.00,,,0.00,Wunderground v.1.15,2013-04-23 23:30:00,
2013-04-23 19:35:00,61.2,48.9,30.01,SSE,151,0.0,5.0,64,0.00,,,0.00,Wunderground v.1.15,2013-04-23 23:35:00,
2013-04-23 19:40:00,60.3,48.9,30.01,SSE,151,0.0,5.0,66,0.00,,,0.00,Wunderground v.1.15,2013-04-23 23:40:00,
2013-04-23 19:45:00,59.3,48.7,30.01,SSE,151,0.0,5.0,68,0.00,,,0.00,Wunderground v.1.15,2013-04-23 23:45:00,
2013-04-23 19:51:00,58.3,47.8,30.00,SSE,151,0.0,5.0,68,0.00,,,0.00,Wunderground v.1.15,2013-04-23 23:51:00,
2013-04-23 19:56:00,57.6,47.1,30.00,SSE,151,0.0,5.0,68,0.00,,,0.00,Wunderground v.1.15,2013-04-23 23:56:00,
2013-04-23 20:02:00,56.7,47.4,30.00,SSE,150,0.0,4.0,71,0.00,,,0.00,Wunderground v.1.15,2013-04-24 00:02:00,
2013-04-23 20:07:00,56.0,46.7,30.00,SSE,150,0.0,4.0,71,0.00,,,0.00,Wunderground v.1.15,2013-04-24 00:07:00,
2013-04-23 20:12:00,55.4,46.2,30.01,SSE,151,0.0,4.0,71,0.00,,,0.00,Wunderground v.1.15,2013-04-24 00:12:00,
2013-04-23 20:18:00,55.0,46.1,30.01,SSE,151,0.0,4.0,72,0.00,,,0.00,Wunderground v.1.15,2013-04-24 00:18:00,
2013-04-23 20:24:00,54.3,45.5,30.01,SSE,151,0.0,4.0,72,0.00,,,0.00,Wunderground v.1.15,2013-04-24 00:24:00,
2013-04-23 20:29:00,54.0,45.5,30.00,SSE,151,0.0,4.0,73,0.00,,,0.00,Wunderground v.1.15,2013-04-24 00:29:00,
2013-04-23 20:34:00,53.5,45.8,30.00,SSE,151,0.0,4.0,75,0.00,,,0.00,Wunderground v.1.15,2013-04-24 00:34:00,
2013-04-23 20:39:00,53.4,45.0,30.00,SSE,151,0.0,4.0,73,0.00,,,0.00,Wunderground v.1.15,2013-04-24 00:39:00,
2013-04-23 20:45:00,52.9,45.5,30.00,SSE,151,0.0,4.0,76,0.00,,,0.00,Wunderground v.1.15,2013-04-24 00:45:00,
2013-04-23 20:51:00,52.8,44.7,29.99,SSE,150,0.0,4.0,74,0.00,,,0.00,Wunderground v.1.15,2013-04-24 00:51:00,
2013-04-23 20:57:00,52.4,45.4,30.00,SSE,150,0.0,4.0,77,0.00,,,0.00,Wunderground v.1.15,2013-04-24 00:57:00,
2013-04-23 21:02:00,52.6,44.5,29.99,SSE,151,0.0,0.0,74,0.00,,,0.00,Wunderground v.1.15,2013-04-24 01:02:00,
2013-04-23 21:07:00,52.4,45.4,29.99,SSE,151,0.0,0.0,77,0.00,,,0.00,Wunderground v.1.15,2013-04-24 01:07:00,
2013-04-23 21:12:00,52.5,44.4,29.99,SSE,151,0.0,0.0,74,0.00,,,0.00,Wunderground v.1.15,2013-04-24 01:12:00,
2013-04-23 21:17:00,52.7,46.0,29.99,SSE,150,0.0,0.0,78,0.00,,,0.00,Wunderground v.1.15,2013-04-24 01:17:00,
2013-04-23 21:22:00,52.5,45.2,29.99,SSE,151,0.0,0.0,76,0.00,,,0.00,Wunderground v.1.15,2013-04-24 01:22:00,
2013-04-23 21:27:00,53.0,46.3,30.00,SSE,150,0.0,0.0,78,0.00,,,0.00,Wunderground v.1.15,2013-04-24 01:27:00,
2013-04-23 21:33:00,53.2,45.8,30.00,SSE,151,0.0,0.0,76,0.00,,,0.00,Wunderground v.1.15,2013-04-24 01:33:00,
2013-04-23 21:38:00,53.3,47.0,30.00,SSE,151,0.0,0.0,79,0.00,,,0.00,Wunderground v.1.15,2013-04-24 01:38:00,
2013-04-23 21:43:00,53.2,46.9,30.00,SSE,151,0.0,0.0,79,0.00,,,0.00,Wunderground v.1.15,2013-04-24 01:43:00,
2013-04-23 21:49:00,53.3,46.6,30.00,SSE,150,0.0,0.0,78,0.00,,,0.00,Wunderground v.1.15,2013-04-24 01:49:00,
2013-04-23 21:54:00,53.4,46.7,30.00,SSE,150,0.0,0.0,78,0.00,,,0.00,Wunderground v.1.15,2013-04-24 01:54:00,
2013-04-23 21:59:00,53.5,46.8,30.00,SSE,151,0.0,0.0,78,0.00,,,0.00,Wunderground v.1.15,2013-04-24 01:59:00,
2013-04-23 22:04:00,53.6,46.9,30.00,SSE,151,0.0,0.0,78,0.00,,,0.00,Wunderground v.1.15,2013-04-24 02:04:00,
2013-04-23 22:10:00,53.6,46.6,29.99,SSE,150,0.0,0.0,77,0.00,,,0.00,Wunderground v.1.15,2013-04-24 02:10:00,
2013-04-23 22:15:00,53.6,46.6,29.99,SSE,151,0.0,0.0,77,0.00,,,0.00,Wunderground v.1.15,2013-04-24 02:15:00,
2013-04-23 22:21:00,53.7,47.3,29.99,SSE,151,0.0,0.0,79,0.00,,,0.00,Wunderground v.1.15,2013-04-24 02:21:00,
2013-04-23 22:27:00,53.7,47.3,29.99,SSE,151,0.0,0.0,79,0.00,,,0.00,Wunderground v.1.15,2013-04-24 02:27:00,
2013-04-23 22:33:00,53.6,46.6,29.99,SSE,150,0.0,0.0,77,0.00,,,0.00,Wunderground v.1.15,2013-04-24 02:33:00,
2013-04-23 22:39:00,53.4,45.0,29.99,SSE,150,0.0,0.0,73,0.00,,,0.00,Wunderground v.1.15,2013-04-24 02:39:00,
2013-04-23 22:45:00,53.2,45.5,29.99,SSE,150,0.0,0.0,75,0.00,,,0.00,Wunderground v.1.15,2013-04-24 02:45:00,
2013-04-23 22:50:00,52.8,45.4,29.99,SSE,150,0.0,0.0,76,0.00,,,0.00,Wunderground v.1.15,2013-04-24 02:50:00,
2013-04-23 22:55:00,52.3,45.3,29.99,SSE,150,0.0,0.0,77,0.00,,,0.00,Wunderground v.1.15,2013-04-24 02:55:00,
2013-04-23 23:01:00,51.8,44.8,29.98,SSE,150,0.0,0.0,77,0.00,,,0.00,Wunderground v.1.15,2013-04-24 03:01:00,
2013-04-23 23:08:00,51.1,44.5,29.99,SSE,150,0.0,0.0,78,0.00,,,0.00,Wunderground v.1.15,2013-04-24 03:08:00,
2013-04-23 23:13:00,50.7,44.1,29.99,SSE,151,0.0,0.0,78,0.00,,,0.00,Wunderground v.1.15,2013-04-24 03:13:00,
2013-04-23 23:19:00,50.2,43.6,29.99,SSE,150,0.0,0.0,78,0.00,,,0.00,Wunderground v.1.15,2013-04-24 03:19:00,
2013-04-23 23:24:00,49.9,43.0,29.99,SSE,151,0.0,0.0,77,0.00,,,0.00,Wunderground v.1.15,2013-04-24 03:24:00,
2013-04-23 23:29:00,49.7,43.5,29.99,SSE,151,0.0,0.0,79,0.00,,,0.00,Wunderground v.1.15,2013-04-24 03:29:00,
2013-04-23 23:35:00,49.5,43.3,29.98,SSE,151,0.0,0.0,79,0.00,,,0.00,Wunderground v.1.15,2013-04-24 03:35:00,
2013-04-23 23:40:00,49.2,43.3,29.98,SSE,150,0.0,0.0,80,0.00,,,0.00,Wunderground v.1.15,2013-04-24 03:40:00,
2013-04-23 23:45:00,49.0,42.8,29.98,SSE,151,0.0,0.0,79,0.00,,,0.00,Wunderground v.1.15,2013-04-24 03:45:00,
2013-04-23 23:51:00,48.8,42.9,29.98,SSE,150,0.0,0.0,80,0.00,,,0.00,Wunderground v.1.15,2013-04-24 03:51:00,
2013-04-23 23:56:00,48.6,42.7,29.98,SSE,151,0.0,0.0,80,0.00,,,0.00,Wunderground v.1.15,2013-04-24 03:56:00,